When you browse on this site, cookies collect data to enhance your experience and personalize the content and advertising you see.
Visit our Privacy Policy to learn more. By continuing to use the site, you agree to this use of cookies and data.
  • In Romania
  • List of Countries
  • For 7 days
  • Water Temperature
  • Satellite Maps
  • Weather Map
  • Weather Widgets
  • user-avatar
    Login

    Hourly Weather San Luis

    Today, 17 January, Thursday

    Time Temperature Precipitation Wind Pressure Humidity
    00:00 +18°C° 1.3 mm 11 mps 699 mmHg 69%
    01:00 +17°C° 1.3 mm 11 mps 700 mmHg 74%
    02:00 +16°C° 1.3 mm 11 mps 700 mmHg 79%
    03:00 +16°C° 1.2 mm 10 mps 701 mmHg 81%
    04:00 +16°C° 1.2 mm 10 mps 701 mmHg 83%
    05:00 +15°C° 1.2 mm 9 mps 702 mmHg 85%
    06:00 +14°C° 1 mm 10 mps 702 mmHg 85%
    07:00 +14°C° 1 mm 10 mps 703 mmHg 85%
    08:00 +14°C° 1 mm 11 mps 703 mmHg 84%
    09:00 +14°C° 0.4 mm 11 mps 704 mmHg 82%
    10:00 +14°C° 0.4 mm 11 mps 704 mmHg 79%
    11:00 +14°C° 0.4 mm 11 mps 705 mmHg 77%
    12:00 +14°C° 0.3 mm 10 mps 705 mmHg 73%
    13:00 +16°C° 0.3 mm 10 mps 705 mmHg 69%
    14:00 +17°C° 0.3 mm 9 mps 706 mmHg 65%
    15:00 +16°C° 1.4 mm 9 mps 705 mmHg 71%
    16:00 +15°C° 1.4 mm 8 mps 705 mmHg 76%
    17:00 +12°C° 1.4 mm 7 mps 704 mmHg 82%
    18:00 +12°C° 0.7 mm 7 mps 704 mmHg 82%
    19:00 +12°C° 0.7 mm 7 mps 704 mmHg 81%
    20:00 +11°C° 0.7 mm 7 mps 704 mmHg 81%
    21:00 +11°C° 0 mm 6 mps 704 mmHg 82%
    22:00 +10°C° 0 mm 6 mps 705 mmHg 82%
    23:00 +10°C° 0 mm 5 mps 705 mmHg 82%

    Tomorrow, 18 January, Friday

    Time Temperature Precipitation Wind Pressure Humidity
    00:00 +10°C° 0 mm 5 mps 704 mmHg 81%
    01:00 +11°C° 0 mm 4 mps 704 mmHg 80%
    02:00 +11°C° 0 mm 3 mps 704 mmHg 79%
    03:00 +11°C° 0 mm 3 mps 704 mmHg 78%
    04:00 +11°C° 0 mm 3 mps 704 mmHg 77%
    05:00 +11°C° 0 mm 3 mps 703 mmHg 76%
    06:00 +13°C° 0 mm 3 mps 704 mmHg 68%
    07:00 +14°C° 0 mm 4 mps 704 mmHg 60%
    08:00 +16°C° 0 mm 5 mps 705 mmHg 51%
    09:00 +19°C° 0 mm 5 mps 705 mmHg 47%
    10:00 +21°C° 0 mm 5 mps 705 mmHg 43%
    11:00 +23°C° 0 mm 5 mps 705 mmHg 39%
    12:00 +25°C° 0 mm 4 mps 705 mmHg 37%
    13:00 +26°C° 0 mm 4 mps 704 mmHg 35%
    14:00 +28°C° 0 mm 4 mps 703 mmHg 32%
    15:00 +28°C° 0 mm 4 mps 703 mmHg 33%
    16:00 +28°C° 0 mm 4 mps 702 mmHg 34%
    17:00 +28°C° 0 mm 4 mps 701 mmHg 34%
    18:00 +26°C° 0 mm 5 mps 701 mmHg 43%
    19:00 +23°C° 0 mm 6 mps 701 mmHg 52%
    20:00 +21°C° 0 mm 7 mps 700 mmHg 61%
    21:00 +20°C° 0 mm 6 mps 701 mmHg 63%
    22:00 +20°C° 0 mm 6 mps 701 mmHg 66%
    23:00 +19°C° 0 mm 5 mps 702 mmHg 68%

    Day after tomorrow, 19 January, Saturday

    Time Temperature Precipitation Wind Pressure Humidity
    00:00 +19°C° 0 mm 5 mps 701 mmHg 67%
    01:00 +19°C° 0 mm 4 mps 701 mmHg 65%
    02:00 +19°C° 0 mm 4 mps 700 mmHg 64%
    03:00 +19°C° 0 mm 4 mps 700 mmHg 64%
    04:00 +17°C° 0 mm 5 mps 700 mmHg 64%
    05:00 +17°C° 0 mm 5 mps 700 mmHg 64%
    06:00 +20°C° 0 mm 6 mps 701 mmHg 60%
    07:00 +21°C° 0 mm 6 mps 701 mmHg 55%
    08:00 +23°C° 0 mm 7 mps 702 mmHg 50%
    09:00 +26°C° 0 mm 6 mps 702 mmHg 45%
    10:00 +27°C° 0 mm 5 mps 702 mmHg 40%
    11:00 +29°C° 0 mm 5 mps 702 mmHg 34%
    12:00 +30°C° 0 mm 4 mps 701 mmHg 32%
    13:00 +32°C° 0 mm 4 mps 701 mmHg 30%
    14:00 +33°C° 0 mm 3 mps 700 mmHg 28%
    15:00 +33°C° 0 mm 3 mps 699 mmHg 27%
    16:00 +33°C° 0 mm 3 mps 699 mmHg 27%
    17:00 +33°C° 0 mm 3 mps 698 mmHg 26%
    18:00 +30°C° 0 mm 3 mps 698 mmHg 32%
    19:00 +28°C° 0 mm 3 mps 698 mmHg 37%
    20:00 +26°C° 0 mm 3 mps 698 mmHg 43%
    21:00 +25°C° 0 mm 4 mps 698 mmHg 44%
    22:00 +25°C° 0 mm 5 mps 698 mmHg 44%
    23:00 +23°C° 0 mm 6 mps 699 mmHg 45%

    20 January, Sunday

    Time Temperature Precipitation Wind Pressure Humidity
    00:00 +23°C° 0 mm 7 mps 698 mmHg 50%
    01:00 +22°C° 0 mm 8 mps 698 mmHg 54%
    02:00 +22°C° 0 mm 9 mps 697 mmHg 59%
    03:00 +21°C° 0 mm 9 mps 697 mmHg 60%
    04:00 +21°C° 0 mm 9 mps 697 mmHg 61%
    05:00 +19°C° 0 mm 9 mps 697 mmHg 62%
    06:00 +22°C° 0 mm 9 mps 697 mmHg 58%
    07:00 +23°C° 0 mm 8 mps 698 mmHg 53%
    08:00 +26°C° 0 mm 8 mps 698 mmHg 49%
    09:00 +27°C° 0 mm 7 mps 698 mmHg 43%
    10:00 +29°C° 0 mm 7 mps 698 mmHg 36%
    11:00 +32°C° 0 mm 6 mps 698 mmHg 30%
    12:00 +33°C° 0 mm 5 mps 697 mmHg 27%
    13:00 +34°C° 0 mm 5 mps 697 mmHg 25%
    14:00 +35°C° 0 mm 5 mps 696 mmHg 22%
    15:00 +35°C° 0 mm 5 mps 695 mmHg 22%
    16:00 +35°C° 0 mm 4 mps 695 mmHg 21%
    17:00 +36°C° 0 mm 4 mps 694 mmHg 21%
    18:00 +33°C° 0 mm 4 mps 694 mmHg 26%
    19:00 +30°C° 0 mm 3 mps 694 mmHg 32%
    20:00 +28°C° 0 mm 3 mps 694 mmHg 37%
    21:00 +27°C° 0 mm 4 mps 694 mmHg 40%
    22:00 +26°C° 0 mm 6 mps 695 mmHg 43%
    23:00 +26°C° 0 mm 7 mps 695 mmHg 46%

    21 January, Monday

    Time Temperature Precipitation Wind Pressure Humidity
    00:00 +24°C° 0 mm 7 mps 695 mmHg 51%
    01:00 +24°C° 0 mm 7 mps 695 mmHg 56%
    02:00 +23°C° 0 mm 7 mps 695 mmHg 61%
    03:00 +23°C° 0 mm 7 mps 695 mmHg 60%
    04:00 +23°C° 0 mm 6 mps 695 mmHg 60%
    05:00 +22°C° 0 mm 6 mps 695 mmHg 59%
    06:00 +25°C° 0 mm 5 mps 696 mmHg 53%
    07:00 +27°C° 0 mm 5 mps 697 mmHg 47%
    08:00 +29°C° 0 mm 4 mps 698 mmHg 42%
    09:00 +30°C° 0 mm 4 mps 698 mmHg 38%
    10:00 +31°C° 0 mm 3 mps 698 mmHg 34%
    11:00 +34°C° 0 mm 2 mps 698 mmHg 31%
    12:00 +35°C° 0 mm 2 mps 698 mmHg 29%
    13:00 +36°C° 0 mm 2 mps 697 mmHg 27%
    14:00 +37°C° 0 mm 2 mps 696 mmHg 25%
    15:00 +37°C° 0 mm 2 mps 696 mmHg 24%
    16:00 +38°C° 0 mm 2 mps 695 mmHg 23%
    17:00 +38°C° 0 mm 2 mps 694 mmHg 22%
    18:00 +36°C° 0 mm 3 mps 694 mmHg 27%
    19:00 +34°C° 0 mm 3 mps 694 mmHg 31%
    20:00 +32°C° 0 mm 4 mps 694 mmHg 35%
    21:00 +30°C° 0 mm 4 mps 694 mmHg 39%
    22:00 +29°C° 0 mm 4 mps 694 mmHg 42%
    23:00 +28°C° 0 mm 5 mps 695 mmHg 45%

    22 January, Tuesday

    Time Temperature Precipitation Wind Pressure Humidity
    00:00 +28°C° 0 mm 6 mps 694 mmHg 50%
    01:00 +27°C° 0 mm 7 mps 694 mmHg 55%
    02:00 +27°C° 0 mm 8 mps 693 mmHg 60%
    03:00 +27°C° 0 mm 8 mps 693 mmHg 61%
    04:00 +26°C° 0 mm 8 mps 693 mmHg 61%
    05:00 +26°C° 0 mm 8 mps 693 mmHg 62%
    06:00 +28°C° 0 mm 8 mps 693 mmHg 58%
    07:00 +29°C° 0 mm 8 mps 694 mmHg 53%
    08:00 +31°C° 0 mm 9 mps 695 mmHg 49%
    09:00 +33°C° 0 mm 8 mps 695 mmHg 44%
    10:00 +35°C° 0 mm 8 mps 695 mmHg 40%
    11:00 +36°C° 0 mm 7 mps 695 mmHg 35%
    12:00 +38°C° 0 mm 6 mps 694 mmHg 33%
    13:00 +39°C° 0 mm 5 mps 694 mmHg 30%
    14:00 +40°C° 0 mm 4 mps 693 mmHg 27%
    15:00 +39°C° 0 mm 3 mps 693 mmHg 26%
    16:00 +39°C° 0 mm 3 mps 692 mmHg 26%
    17:00 +39°C° 0 mm 2 mps 692 mmHg 26%
    18:00 +37°C° 0 mm 2 mps 692 mmHg 31%
    19:00 +35°C° 0 mm 2 mps 692 mmHg 36%
    20:00 +32°C° 0 mm 2 mps 692 mmHg 41%
    21:00 +33°C° 0.1 mm 3 mps 692 mmHg 44%
    22:00 +32°C° 0.1 mm 4 mps 693 mmHg 48%
    23:00 +30°C° 0.1 mm 5 mps 693 mmHg 52%
    Show more